Location: Gieshügel
(49.7766°N, 10.0185°E)
Time: 05:32:02
(UTC+00:00)

Daily predictions for brighter satellites

Satellite Brightness Start Highest point End
(mag) Time Altitude Azimuth Time Altitude Azimuth Time Altitude Azimuth
Cosmos 2227 Rocket 2.7 00:02:07 10° NW 00:07:27 43° WSW 00:09:27 31° SSW
Cosmos 1844 Rocket 4.4 00:03:26 10° NNW 00:08:28 32° NE 00:13:27 10° ESE
GEOS 3 Rocket 4.3 00:07:47 10° NE 00:12:52 52° NW 00:17:31 13° WSW
CZ-2D R/B 4.5 00:14:26 10° ENE 00:16:18 12° E 00:18:11 10° ESE
Cosmos 1238 Rocket 4.2 00:12:29 10° N 00:17:32 47° ENE 00:20:49 19° SE
IDEFIX/ARIANE 42P 3.9 00:13:57 10° NE 00:18:27 29° E 00:21:28 17° SE
Landsat 4 3.8 00:18:25 37° ESE 00:18:58 42° ENE 00:21:39 10° N
Cosmos 1441 Rocket 4.3 00:20:22 25° W 00:21:16 29° WNW 00:24:21 10° N
Cosmos 2360 Rocket 4.5 00:23:01 10° ESE 00:25:12 12° E 00:27:22 10° ENE
H-2A R/B 4.4 00:23:39 10° NE 00:26:08 15° E 00:28:37 10° SE
Cosmos 2221 2.8 00:22:11 10° N 00:26:26 63° ENE 00:28:33 28° SSE
Cosmos 1315 Rocket 4.2 00:26:39 10° NW 00:29:42 23° W 00:30:17 22° WSW
SeaSat 1 4.1 00:26:01 10° ESE 00:30:21 33° NE 00:34:42 10° NNW
Okean 1 3.0 00:27:08 10° N 00:30:53 86° W 00:32:02 43° S
Cosmos 1125 Rocket 3.9 00:30:24 26° SW 00:33:18 57° WNW 00:38:30 10° NNE
Cosmos 1812 Rocket 3.5 00:29:00 10° N 00:33:24 89° WNW 00:35:20 33° S
Geosat 4.4 00:28:39 10° NNE 00:33:34 57° NW 00:36:37 23° SW
SL-23 DEB 4.2 00:36:43 32° SE 00:36:43 32° SE 00:39:25 10° E
Nadezhda 1 Rocket 3.9 00:30:52 10° NNW 00:37:06 80° W 00:40:50 25° S
Cosmos 1346 Rocket 4.2 00:35:27 19° SE 00:37:08 27° E 00:40:17 10° NE
Cosmos 2150 Rocket 4.1 00:36:24 30° S 00:39:10 76° ESE 00:44:38 10° NNE
Meteor 2-6 Rocket 4.3 00:34:43 10° NNW 00:40:31 76° W 00:44:03 25° S
CENTAUR R/B 3.8 00:37:30 16° SSE 00:40:34 24° ESE 00:45:42 10° ENE
H-2A R/B 2.4 00:41:17 39° SSW 00:42:27 58° WSW 00:46:20 10° NNW
Okean 1-7 Rocket 3.6 00:42:59 31° S 00:45:06 77° E 00:49:38 10° NNE
Cosmos 2322 Rocket 4.0 00:43:02 11° SSE 00:46:50 22° E 00:51:01 10° NE
Cosmos 1745 Rocket 4.0 00:44:17 26° S 00:48:10 87° WNW 00:54:34 10° N
Cosmos 1825 Rocket 4.0 00:46:00 25° SSE 00:48:16 53° E 00:52:32 10° NNE
ADEOS II 4.3 00:46:31 10° NE 00:49:52 17° E 00:53:11 10° SE
ATLAS 5 CENTAUR R/B 2.4 00:46:42 10° NW 00:50:56 57° NE 00:56:10 10° ESE
MOZ.5/SAFIR/RUBIN 5/SL-8 4.2 00:52:02 14° SSE 00:55:55 62° ENE 01:00:34 10° N
Cosmos 2263 Rocket 2.9 00:51:28 10° NW 00:56:30 34° WSW 00:58:42 25° SSW
CZ-2C R/B 3.4 00:56:51 10° N 01:01:26 48° WNW 01:04:01 24° SW
Cosmos 1709 Rocket 4.0 00:57:16 23° S 01:01:29 87° E 01:07:49 10° N
USA 32 4.4 01:00:07 26° SW 01:02:55 54° W 01:08:03 10° N
Meteor 1-27 Rocket 4.2 00:57:17 10° N 01:03:12 63° ENE 01:09:02 10° SSE
Cosmos 2082 4.0 00:57:50 10° NW 01:03:16 47° WSW 01:06:25 23° S
Cosmos 2369 3.8 01:01:32 24° SW 01:05:02 74° WNW 01:10:43 10° NNE
MSX 4.0 01:00:43 10° NNE 01:06:27 68° ESE 01:10:26 20° S
Cosmos 2181 Rocket 4.4 01:01:46 10° N 01:07:52 61° ENE 01:13:55 10° SSE
Cosmos 1602 Rocket 4.0 01:07:34 27° SW 01:09:38 48° WNW 01:13:52 10° N
Cosmos 2298 Rocket 4.2 01:07:44 24° SW 01:10:57 66° WNW 01:16:16 10° NNE
FENGYUN 3A 4.2 01:09:14 10° NNE 01:14:32 54° E 01:18:43 16° S
SL-16 R/B 2.5 01:13:38 21° S 01:17:23 58° ESE 01:22:57 10° NE
Cosmos 2219 4.2 01:13:41 10° NW 01:18:28 29° WSW 01:20:47 21° SW
Cosmos 2333 Rocket 3.1 01:15:34 16° S 01:19:44 39° ESE 01:24:59 10° NE
USA 290 4.4 01:18:04 10° WNW 01:19:33 14° W 01:19:33 14° W
Meteor 1-10 Rocket 4.3 01:15:14 10° NNW 01:20:56 67° W 01:25:25 17° S
USA 276 3.1 01:22:20 24° SSE 01:22:20 24° SSE 01:24:27 10° E
Cosmos 1842 Rocket 3.9 01:18:21 10° N 01:22:44 64° ENE 01:26:56 11° SSE
BREEZE M DEB (TANK) 2.4 01:21:29 14° W 01:23:31 59° SSW 01:28:15 10° ESE
BREEZE-M DEB 4.0 01:10:18 10° W 01:24:26 83° S 01:28:12 10° ESE
ATLAS 2AS CENTAUR R/B 3.3 01:19:17 10° NW 01:25:10 33° WSW 01:29:12 18° SSW
Meteor 2-4 Rocket 4.2 01:21:14 10° N 01:26:33 57° ENE 01:31:48 10° SSE
Cosmos 44 Rocket 3.6 01:25:06 22° S 01:27:57 53° ESE 01:32:33 10° NE
Cosmos 1707 3.1 01:26:16 10° N 01:29:28 49° ENE 01:32:32 11° SSE
Cosmos 921 Rocket 4.1 01:25:50 10° NW 01:29:34 27° W 01:31:10 21° SW
Cosmos 1743 2.2 01:28:38 27° SSW 01:30:18 80° W 01:33:40 10° N
Cosmos 1980 Rocket 3.3 01:25:56 12° WSW 01:30:31 35° NW 01:35:41 10° NNE
NPP 3.7 01:28:04 10° NNE 01:33:29 84° WNW 01:37:32 18° SSW
Meteor 1-20 Rocket 4.3 01:33:05 19° SSW 01:37:20 72° WNW 01:43:05 10° N
Cosmos 2151 3.8 01:35:22 20° SW 01:37:39 35° WNW 01:41:29 10° N
Lacrosse 5 rocket 3.3 01:36:31 10° W 01:37:12 12° W 01:37:12 12° W
KORONAS-FOTON 3.6 01:35:42 10° N 01:39:16 84° E 01:42:14 14° S
Cosmos 1023 Rocket 4.4 01:34:32 10° NNW 01:39:41 71° WSW 01:44:51 10° SSE
CZ-2C R/B 4.2 01:37:53 15° WSW 01:40:27 20° W 01:44:31 10° NW
Cosmos 1140 Rocket 3.4 01:36:36 10° NNW 01:41:46 73° WSW 01:46:55 10° SSE
Resurs 1-4 Rocket 2.4 01:38:19 10° NNE 01:43:37 65° ESE 01:48:25 13° S
Cosmos 1842 2.9 01:45:23 10° N 01:48:47 79° E 01:52:08 10° SSE
Cosmos 1076 Rocket 3.5 01:46:03 19° SSW 01:49:01 65° WNW 01:53:16 10° N
Cosmos 1844 Rocket 2.8 01:47:09 10° NW 01:52:39 56° WSW 01:58:05 10° S
SJ 16-02 4.3 01:49:56 10° N 01:52:57 18° NE 01:55:58 10° E
Cosmos 407 Rocket 3.6 01:51:25 10° NNW 01:56:42 87° ENE 02:02:00 10° SSE
Cosmos 1844 3.8 01:51:25 10° NW 01:56:59 58° WSW 02:02:36 10° S
CZ-2D R/B 2.2 01:51:57 10° NNE 01:57:12 77° ESE 02:02:07 11° S
IDEFIX/ARIANE 42P 3.1 01:53:09 10° N 01:58:05 45° WNW 02:02:09 15° SW
Cosmos 1151 Rocket 4.0 01:54:37 10° N 01:58:49 48° ENE 02:02:58 10° SSE
Cosmos 2184 Rocket 4.2 01:54:19 10° S 02:00:42 82° E 02:07:07 10° N
EP 1 4.4 01:58:08 10° NW 02:00:42 55° SW 02:03:37 10° SSE
H-2A R/B 2.1 01:57:44 10° N 02:01:57 67° WNW 02:05:29 15° SSW
Cosmos 2221 4.4 02:00:37 10° NW 02:03:00 15° W 02:04:55 11° WSW
Cosmos 1953 Rocket 4.2 02:04:16 15° SW 02:07:29 41° WNW 02:11:36 10° N
ATLAS CENTAUR R/B 3.6 02:05:36 10° SE 02:07:32 14° ESE 02:09:31 10° E
SeaSat 1 2.6 02:02:50 10° S 02:07:34 50° WSW 02:12:21 10° NW
Cosmos 2360 Rocket 2.3 02:03:04 13° SSW 02:08:08 73° ESE 02:13:46 10° NNE
Cosmos 1346 Rocket 4.0 02:09:59 13° WSW 02:12:28 25° WNW 02:15:37 10° N
Cosmos 2278 4.0 02:08:06 14° SW 02:13:01 61° WNW 02:18:39 10° NNE
Cosmos 2154 Rocket 4.1 02:06:49 10° S 02:13:05 87° E 02:19:27 10° N
ARIANE 6 FM1 Upper Stage 4.0 02:10:45 10° S 02:14:12 29° ESE 02:17:40 10° ENE
Cosmos 1733 3.5 02:14:22 16° SW 02:16:22 34° WNW 02:19:09 10° N
Cosmos 2219 Rocket 2.7 02:17:24 10° S 02:22:51 56° ESE 02:28:19 10° NE
H-2A R/B 3.3 02:20:24 10° NNE 02:24:58 37° E 02:29:29 10° SSE
Cosmos 2074 Rocket 4.1 02:19:48 10° SSW 02:25:58 67° WNW 02:32:12 10° N
Cosmos 405 Rocket 3.6 02:26:04 10° SSE 02:29:04 36° E 02:32:06 10° NNE
ADEOS II 2.1 02:24:48 10° NNE 02:30:03 80° WNW 02:35:17 10° SSW
CENTAUR R/B 2.6 02:24:36 11° SW 02:30:11 78° NW 02:37:30 10° NE
Cosmos 2322 Rocket 2.3 02:24:50 11° SW 02:30:19 71° WNW 02:35:58 10° NNE
Cosmos 1954 Rocket 4.4 02:25:18 10° NNW 02:30:29 68° ENE 02:35:40 10° SSE
ALOS 2.3 02:28:02 10° N 02:32:37 72° WNW 02:37:09 10° SSW
ATLAS 5 CENTAUR R/B 2.7 02:29:39 10° WNW 02:33:42 29° WSW 02:38:29 10° S
Meteor 2-13 Rocket 4.5 02:28:35 10° NNW 02:34:42 73° W 02:40:49 10° S
Meteor 1-28 Rocket 3.4 02:32:40 10° SSE 02:35:59 63° ENE 02:39:19 10° N
Meteor 1-18 Rocket 4.3 02:33:16 10° NNW 02:38:44 60° W 02:44:10 10° S
Cosmos 2251 Rocket 3.5 02:34:05 10° NNW 02:39:21 69° WSW 02:44:34 10° SSE
Lacrosse 4 Rocket 4.2 02:38:58 10° ESE 02:40:14 11° ESE 02:41:30 10° E
NOSS 3-2 (A) 3.3 02:37:58 10° SSW 02:43:01 71° SE 02:49:07 10° NE
DMSP B5D2-2 4.2 02:37:57 10° S 02:43:07 60° W 02:48:18 10° NNW
Envisat 3.1 02:38:45 10° N 02:43:49 71° WNW 02:48:51 10° SSW
Cosmos 1420 Rocket 4.1 02:40:15 10° SSW 02:45:30 80° ESE 02:50:46 10° NNE
SL-23 DEB 3.8 02:43:57 10° W 02:47:06 69° N 02:51:08 10° E
Cosmos 2278 Rocket 3.8 02:46:28 10° NNW 02:51:52 42° NE 02:57:13 10° ESE
